Change the Weather History Date:

Saturday, December 1, 2012

  Actual Average Record
Temperature  
Mean Temperature 59 °F -  
Max Temperature 81 °F 60 °F 81 °F (2012)
Min Temperature 37 °F 30 °F 17 °F (1975)
Degree Days  
Heating Degree Days 6    
Growing Degree Days 9 (Base 50)    
Moisture  
Dew Point 23 °F    
Average Humidity 32    
Maximum Humidity 60    
Minimum Humidity 10    
Precipitation  
Precipitation 0.00 in - - ()
Sea Level Pressure  
Sea Level Pressure 29.95 in    
Wind  
Wind Speed 5 mph (WSW)    
Max Wind Speed 20 mph    
Max Gust Speed 28 mph    
Visibility 10 miles    
Events      
Averages and records for this station are not official NWS values.
T = Trace of Precipitation, MM = Missing Value Source: NWS Daily Summary

Daily Weather History Graph

Daily Weather History Graph

Search for Another Location

Airport or City:

Trip Planner

Search our weather history database for the weather conditions in past years. The results will help you decide how hot, cold, wet, or windy it might be!

Date:

Astronomy

Dec. 01, 2012 Rise Set
Actual Time 6:40 AM MST 4:51 PM MST
Civil Twilight 6:14 AM MST 5:18 PM MST
Nautical Twilight 5:43 AM MST 5:48 PM MST
Astronomical Twilight 5:14 AM MST 6:18 PM MST
Moon 7:40 PM MST (12/1) 8:57 AM MST (12/1)
Length of Visible Light 11h 04m
Length of Day
10h 10m
Waning Gibbous, 91% of the Moon is Illuminated
Dec 1
Waning Gibbous
Dec 6
Last Quarter
Dec 13
New
Dec 19
First Quarter
Dec 28
Full

Hourly Weather History & Observations

Time (MST) Temp. Windchill Dew Point Humidity Pressure Visibility Wind Dir Wind Speed Gust Speed Precip Events Conditions
12:53 AM 46.0 °F - 26.1 °F 46% 29.94 in 10.0 mi Calm Calm - N/A   Clear
1:53 AM 41.0 °F 39.0 °F 25.0 °F 53% 29.94 in 10.0 mi East 3.5 mph - N/A   Clear
2:53 AM 39.0 °F 35.7 °F 24.1 °F 55% 29.94 in 10.0 mi SSW 4.6 mph - N/A   Clear
3:53 AM 39.0 °F - 24.1 °F 55% 29.95 in 10.0 mi Calm Calm - N/A   Clear
4:53 AM 37.9 °F 34.4 °F 24.1 °F 57% 29.97 in 10.0 mi NNW 4.6 mph - N/A   Clear
5:53 AM 37.9 °F 35.5 °F 25.0 °F 60% 29.98 in 10.0 mi WNW 3.5 mph - N/A   Clear
6:53 AM 37.0 °F 34.5 °F 24.1 °F 59% 30.01 in 10.0 mi Variable 3.5 mph - N/A   Clear
7:53 AM 50.0 °F - 28.0 °F 43% 29.98 in 10.0 mi ESE 3.5 mph - N/A   Clear
8:53 AM 53.1 °F - 25.0 °F 34% 30.00 in 10.0 mi NNE 3.5 mph - N/A   Clear
9:53 AM 62.1 °F - 26.1 °F 25% 29.99 in 10.0 mi Variable 6.9 mph - N/A   Clear
10:53 AM 68.0 °F - 27.0 °F 21% 29.98 in 10.0 mi SSE 6.9 mph - N/A   Clear
11:53 AM 73.9 °F - 27.0 °F 18% 29.94 in 10.0 mi East 6.9 mph - N/A   Clear
12:53 PM 80.1 °F - 19.9 °F 11% 29.89 in 10.0 mi West 18.4 mph 27.6 mph N/A   Clear
1:53 PM 81.0 °F - 18.0 °F 10% 29.89 in 10.0 mi WSW 19.6 mph 26.5 mph N/A   Clear
2:53 PM 79.0 °F - 19.9 °F 11% 29.90 in 10.0 mi WSW 16.1 mph - N/A   Clear
3:53 PM 77.0 °F - 19.9 °F 12% 29.91 in 10.0 mi SW 10.4 mph - N/A   Clear
4:53 PM 66.9 °F - 21.9 °F 18% 29.92 in 10.0 mi WSW 10.4 mph - N/A   Clear
5:53 PM 64.9 °F - 19.9 °F 18% 29.94 in 10.0 mi West 4.6 mph - N/A   Clear
6:53 PM 57.9 °F - 21.0 °F 24% 29.96 in 10.0 mi West 12.7 mph - N/A   Clear
7:53 PM 57.9 °F - 19.9 °F 23% 29.95 in 10.0 mi WSW 5.8 mph - N/A   Clear
8:53 PM 59.0 °F - 19.9 °F 22% 29.96 in 10.0 mi SW 3.5 mph - N/A   Clear
9:53 PM 57.9 °F - 19.0 °F 22% 29.94 in 10.0 mi SSW 9.2 mph - N/A   Clear
10:53 PM 48.0 °F - 19.9 °F 33% 29.98 in 10.0 mi Variable 3.5 mph - N/A   Clear
11:53 PM 46.0 °F 43.9 °F 19.0 °F 34% 29.97 in 10.0 mi North 4.6 mph - N/A   Clear